| time (UTC) | temp F | wind direction | speed MPH | gust MPH | rain 1hr in | rain 24hr in | rain mn in | humidity % | barometer mb |
| 20260502151858 | 77 | 203 | 7.0 | 18.0 | 0.00 | 0.00 | 0.00 | 45 | 1017.0 |
| 20260502151358 | 77 | 186 | 2.0 | 18.0 | 0.00 | 0.00 | 0.00 | 47 | 1017.0 |
| 20260502150848 | 77 | 236 | 4.0 | 18.0 | 0.00 | 0.00 | 0.00 | 45 | 1017.1 |
| 20260502150357 | 77 | 232 | 1.0 | 18.0 | 0.00 | 0.00 | 0.00 | 46 | 1017.1 |
| 20260502130357 | 77 | 159 | 5.0 | 18.0 | 0.00 | 0.00 | 0.00 | 42 | 1018.5 |
| 20260502123358 | 78 | 250 | 2.0 | 16.0 | 0.00 | 0.00 | 0.00 | 39 | 1018.9 |
| 20260502122858 | 77 | 196 | 3.0 | 16.0 | 0.00 | 0.00 | 0.00 | 39 | 1019.0 |
| 20260502122347 | 76 | 242 | 4.0 | 16.0 | 0.00 | 0.00 | 0.00 | 39 | 1019.0 |
| 20260502121858 | 76 | 158 | 6.0 | 16.0 | 0.00 | 0.00 | 0.00 | 41 | 1019.1 |
| 20260502121358 | 76 | 103 | 1.0 | 16.0 | 0.00 | 0.00 | 0.00 | 40 | 1019.0 |
| 20260502120848 | 76 | 119 | 12.0 | 16.0 | 0.00 | 0.00 | 0.00 | 38 | 1019.2 |
| 20260502120357 | 77 | 150 | 2.0 | 14.0 | 0.00 | 0.00 | 0.00 | 40 | 1019.3 |
| 20260502115348 | 76 | 141 | 4.0 | 14.0 | 0.00 | 0.00 | 0.00 | 42 | 1019.5 |
| 20260502114357 | 76 | 150 | 6.0 | 13.0 | 0.00 | 0.00 | 0.00 | 40 | 1019.6 |
| 20260502113846 | 76 | 208 | 4.0 | 13.0 | 0.00 | 0.00 | 0.00 | 41 | 1019.6 |
| 20260502113357 | 76 | 173 | 3.0 | 13.0 | 0.00 | 0.00 | 0.00 | 41 | 1019.7 |
| 20260502112857 | 76 | 295 | 2.0 | 13.0 | 0.00 | 0.00 | 0.00 | 40 | 1019.8 |
| 20260502112346 | 75 | 118 | 7.0 | 13.0 | 0.00 | 0.00 | 0.00 | 40 | 1019.9 |
| 20260502111356 | 76 | 181 | 6.0 | 13.0 | 0.00 | 0.00 | 0.00 | 40 | 1020.0 |
| 20260502110847 | 76 | 188 | 1.0 | 13.0 | 0.00 | 0.00 | 0.00 | 40 | 1019.9 |
| 20260502105347 | 75 | 223 | 3.0 | 13.0 | 0.00 | 0.00 | 0.00 | 40 | 1019.9 |
| 20260502104900 | 75 | 225 | 4.0 | 13.0 | 0.00 | 0.00 | 0.00 | 42 | 1020.0 |
| 20260502104358 | 75 | 137 | 5.0 | 13.0 | 0.00 | 0.00 | 0.00 | 40 | 1020.0 |
| 20260502103847 | 74 | 247 | 0.0 | 13.0 | 0.00 | 0.00 | 0.00 | 41 | 1020.2 |
| 20260502103357 | 74 | 234 | 6.0 | 13.0 | 0.00 | 0.00 | 0.00 | 42 | 1020.3 |
| 20260502102858 | 74 | 229 | 6.0 | 13.0 | 0.00 | 0.00 | 0.00 | 41 | 1020.4 |
| 20260502102347 | 74 | 241 | 4.0 | 13.0 | 0.00 | 0.00 | 0.00 | 43 | 1020.5 |
| 20260502100847 | 73 | 171 | 2.0 | 11.0 | 0.00 | 0.00 | 0.00 | 43 | 1020.6 |
| 20260502100357 | 73 | 137 | 5.0 | 11.0 | 0.00 | 0.00 | 0.00 | 42 | 1020.6 |
| 20260502090848 | 71 | 153 | 0.0 | 9.0 | 0.00 | 0.00 | 0.00 | 41 | 1021.3 |
| 20260502090356 | 70 | 218 | 2.0 | 9.0 | 0.00 | 0.00 | 0.00 | 43 | 1021.5 |